Regional Weather Roundup
Issued by NWS Portland, ME

Current Version | Previous Version | Text Only | Print | Product List | Glossary On
Versions: 1 2 3 4 5 6 7 8 9 10 11 12 13 14 15 16 17 18 19 20 21 22 23 24 25 26 27 28 29 30 31 32 33 34 35 36 37 38 39 40 41 42 43 44 45 46 47 48 49 50
000 ASUS41 KGYX 241805 RWRGYX WEATHER ROUNDUP FOR MAINE AND NEW HAMPSHIRE NATIONAL WEATHER SERVICE GRAY ME 200 PM EDT FRI OCT 24 2014 MEZ002-005-006-010-012-015-018-020-021-024-026-027-029-241900- MAINE CITY SKY/WX TMP DP RH WIND PRES REMARKS PORTLAND CLOUDY 53 47 79 N12 29.66F 6HR MIN TEMP: 49; 6HR MAX TEMP: 53; 6HR PCP: 0.03; SANFORD CLOUDY 52 43 71 N9 29.67F BAR HARBOR CLOUDY 48 46 93 N13G20 29.60F WISCASSET CLOUDY 50 45 83 VRB5 29.66F 6HR MIN TEMP: 47; 6HR MAX TEMP: 50; 6HR PCP: 0.02; ROCKLAND CLOUDY 48 45 87 NW8G16 29.62F FRYEBURG CLOUDY 51 44 77 N8 29.68F 6HR MIN TEMP: 47; 6HR MAX TEMP: 52; 6HR PCP: 0.03; LEWISTONAUBURN CLOUDY 50 45 81 N13 29.67S AUGUSTA CLOUDY 47 44 90 N15 29.67F 6HR MIN TEMP: 45; 6HR MAX TEMP: 47; 6HR PCP: 0.01; WATERVILLE CLOUDY 46 43 87 N9 29.65S BANGOR DRIZZLE 46 44 93 N17G25 29.65F FOG 6HR MIN TEMP: 45; 6HR MAX TEMP: 47; 6HR PCP: 0.02; GREENVILLE N/A 42 40 92 N12 29.66F 6HR MIN TEMP: 40; 6HR MAX TEMP: 42; 6HR PCP: 0.12; MILLINOCKET RAIN 45 42 89 N8 29.69F FOG 6HR MIN TEMP: 43; 6HR MAX TEMP: 46; 6HR PCP: 0.03; HOULTON LGT RAIN 43 40 89 N14 29.66S FOG 6HR MIN TEMP: 42; 6HR MAX TEMP: 44; 6HR PCP: 0.06; PRESQUE ISLE CLOUDY 39 36 87 N16G22 29.71F 6HR MIN TEMP: 39; 6HR MAX TEMP: 41; 6HR PCP: 0.43; FRENCHVILLE RAIN 39 37 92 N14 29.75F FOG 6HR MIN TEMP: 39; 6HR MAX TEMP: 43; 6HR PCP: 0.16; CARIBOU LGT RAIN 40 37 89 N13G20 29.73S FOG 6HR MIN TEMP: 40; 6HR MAX TEMP: 41; 6HR PCP: 0.44; $$ NHZ002-005-008-009-011-012-014-241900- NEW HAMPSHIRE CITY SKY/WX TMP DP RH WIND PRES REMARKS PORTSMOUTH LGT RAIN 53 47 79 NW10 29.66F ROCHESTER CLOUDY 52 47 83 NW10 29.67F 6HR MIN TEMP: 48; 6HR MAX TEMP: 52; 6HR PCP: 0.01; NASHUA CLOUDY 52 44 74 N12G18 29.71F MANCHESTER CLOUDY 50 42 74 NW15 29.69F 6HR MIN TEMP: 49; 6HR MAX TEMP: 51; 6HR PCP: TRACE; CONCORD CLOUDY 50 45 83 W13 29.70F 6HR MIN TEMP: 47; 6HR MAX TEMP: 50; 6HR PCP: TRACE; LACONIA CLOUDY 50 45 81 W5 29.68F PLYMOUTH CLOUDY 48 45 90 W12 29.71S BERLIN CLOUDY 47 43 86 VRB6 29.72F 6HR MIN TEMP: 44; 6HR MAX TEMP: 47; 6HR PCP: 0.02; WHITEFIELD CLOUDY 46 43 89 N3 29.74F 6HR MIN TEMP: 44; 6HR MAX TEMP: 46; 6HR PCP: 0.03; JAFFREY CLOUDY 46 41 82 NW10 29.72F 6HR MIN TEMP: 44; 6HR MAX TEMP: 46; 6HR PCP: TRACE; LEBANON CLOUDY 50 40 68 N9G17 29.74F 6HR MIN TEMP: 46; 6HR MAX TEMP: 50; MT WASHINGTON FOG 32 32 100 N25G38 N/A VSB 1/8 WCI 19 6HR MIN TEMP: 31; 6HR MAX TEMP: 35; 6HR PCP: 0.02; $$ VTZ005-007-008-241900- VERMONT CITY SKY/WX TMP DP RH WIND PRES REMARKS ST JOHNSBURY N/A 45 40 82 MISG 29.75F MONTPELIER CLOUDY 42 39 89 NW8 29.81S BURLINGTON CLOUDY 46 40 79 N12 29.84S $$ MAZ007-012-024-CTZ003-RIZ002-NYZ038-NYZ072-241900- SOUTHERN NEW ENGLAND AND NY CITY SKY/WX TMP DP RH WIND PRES REMARKS BOSTON CLOUDY 50 45 83 NW14 29.68F WORCESTER CLOUDY 48 41 76 NW17G26 29.70F NANTUCKET CLOUDY 54 47 77 N18G26 29.65S PROVIDENCE CLOUDY 54 45 71 NW10 29.69F HARTFORD PTSUNNY 56 41 57 N15G23 29.72F ALBANY DRIZZLE 49 46 90 NE6 29.81F NEW YORK CITY CLOUDY 59 44 57 N12 29.77F $$ ANZ081-ANZ082-ANZ150-NHZ014-MEZ023>029-241900- COASTAL MARINE OBSERVATIONS STATION/POSITION TIME TEMP WIND PRES WAVE AIR SEA DIR/SP/G HT/PER (UTC) (F) (DEG/KT/KT) (MB) (FT/S) MOUNT DESERT ROC 1800 50 1000.9F MATINICUS ROCK 1700 350/ 25/ 28 1002.0F PORTLAND WX BUOY 1750 51 54 360/ 19/ 23 1003.4F 5/10 WELLS 1700 50 51 360/ 9/ 11 1004.0F ISLE OF SHOALS 1700 50 340/ 14/ 16 1004.4F JEFFREYS LEDGE 1721 55 N/A 9/ 9 CASHES LEDGE BUO 1750 50 54 350/ 19/ 23 1001.4F 8/10 $$ .............KEY.............. WCI - WIND CHILL TC - TEMPERATURE IN CELSIUS VSB - VISIBILITY IN MILES HX - HEAT INDEX FAIR- INDICATES FEW OR NO CLOUDS BELOW 12,000 FT, WITH NO SIGNIFICANT WEATHER AND/OR OBSTRUCTIONS TO VISIBILITY.

USA.gov is the U.S. government's official web portal to all federal, state and local government web resources and services.